Total_Precipitation_Accumulation
0.99 1.02 0.94 1.09 1.16 1.16 1.17 1.17 1.09 1.04 1.03 0.91 0.91 0.96 0.94 0.78 0.82 0.90 1.02 1.01 1.25 1.65 1.73 1.54 1.39 1.19 1.06 1.00 1.11 1.24 1.40 1.39 1.41 1.45 1.42 1.61 1.85 1.72 1.84 1.92 1.97 2.17 2.25
0.88 1.05 1.00 1.00 1.08 1.26 1.32 1.26 1.16 1.19 1.18 1.01 1.03 1.11 1.06 0.96 0.96 0.99 1.09 0.95 0.84 1.03 1.42 1.64 1.62 1.46 1.25 1.16 1.17 1.27 1.46 1.36 1.29 1.33 1.40 1.60 1.91 1.76 1.80 1.92 1.86 2.05 2.27
0.82 0.99 0.96 0.87 0.87 1.04 1.23 1.37 1.39 1.35 1.21 1.10 1.11 1.13 1.05 1.04 1.02 1.15 1.17 1.12 0.91 0.73 0.92 1.21 1.44 1.50 1.47 1.47 1.39 1.34 1.39 1.31 1.30 1.35 1.38 1.48 1.83 1.93 1.93 1.97 1.86 1.96 2.07
0.61 0.81 0.89 0.81 0.82 1.00 1.23 1.43 1.54 1.56 1.42 1.36 1.40 1.31 1.15 1.10 1.07 1.19 1.21 1.23 1.21 0.96 0.82 0.81 0.95 1.19 1.37 1.49 1.57 1.50 1.39 1.28 1.25 1.31 1.30 1.33 1.57 1.75 1.87 1.95 1.94 2.04 2.06
0.53 0.74 0.93 0.98 0.98 1.10 1.24 1.28 1.50 1.60 1.67 1.58 1.45 1.35 1.25 1.23 1.19 1.15 1.29 1.26 1.26 1.19 1.02 0.74 0.65 0.73 0.96 1.25 1.44 1.50 1.51 1.34 1.28 1.27 1.18 1.18 1.32 1.52 1.83 1.66 1.71 1.84 1.98
0.65 0.85 1.08 1.18 1.30 1.34 1.41 1.57 1.86 1.87 1.76 1.75 1.61 1.43 1.28 1.27 1.30 1.35 1.33 1.29 1.34 1.22 1.07 0.90 0.76 0.54 0.63 0.89 1.19 1.42 1.49 1.46 1.40 1.41 1.33 1.18 1.16 1.31 1.63 1.63 1.64 1.64 1.78
0.80 1.03 1.24 1.48 1.62 1.52 1.54 1.76 2.02 2.19 2.03 1.89 1.95 1.84 1.65 1.47 1.42 1.40 1.38 1.40 1.41 1.34 1.22 1.17 1.05 0.88 0.72 0.62 0.75 1.10 1.35 1.48 1.49 1.54 1.60 1.44 1.28 1.27 1.37 1.30 1.32 1.48 1.68
0.91 0.97 1.18 1.39 1.48 1.55 1.60 1.73 1.97 2.31 2.17 1.95 2.11 2.45 2.24 2.00 1.58 1.29 1.42 1.48 1.50 1.42 1.30 1.16 1.13 1.07 0.99 0.93 0.60 0.66 1.00 1.34 1.58 1.57 1.62 1.62 1.55 1.33 1.33 1.21 1.12 1.21 1.39
1.20 1.18 1.21 1.36 1.46 1.60 1.68 1.73 1.77 2.07 2.21 2.08 2.09 2.57 2.49 2.26 2.10 1.63 1.32 1.39 1.48 1.54 1.50 1.40 1.27 1.20 1.12 1.13 0.92 0.60 0.71 0.93 1.32 1.55 1.68 1.73 1.63 1.41 1.31 1.25 1.17 1.16 1.23
1.51 1.49 1.49 1.59 1.56 1.54 1.56 1.58 1.57 1.78 2.16 2.25 2.11 1.97 1.94 2.00 2.30 2.03 1.51 1.36 1.38 1.40 1.50 1.40 1.43 1.43 1.43 1.31 1.10 0.79 0.58 0.66 1.00 1.50 1.84 1.83 1.63 1.44 1.32 1.33 1.23 1.21 1.26
2.09 2.01 1.94 1.80 1.64 1.55 1.58 1.63 1.63 1.72 1.86 2.02 1.99 1.88 1.87 1.82 1.69 1.85 1.82 1.59 1.39 1.29 1.37 1.42 1.47 1.49 1.57 1.52 1.32 0.98 0.70 0.55 0.68 1.13 1.58 1.77 1.78 1.59 1.39 1.30 1.25 1.22 1.15
2.05 1.99 1.86 1.65 1.49 1.43 1.50 1.63 1.67 1.72 1.71 1.79 1.76 1.69 1.70 1.68 1.59 1.72 1.69 1.70 1.68 1.33 1.22 1.27 1.35 1.41 1.40 1.47 1.31 1.34 1.00 0.69 0.58 0.76 1.04 1.37 1.70 1.85 1.72 1.59 1.42 1.32 1.22
1.45 1.47 1.47 1.45 1.40 1.34 1.43 1.62 1.72 1.75 1.73 1.71 1.67 1.61 1.66 1.53 1.58 1.81 1.85 1.77 1.70 1.38 1.22 1.11 1.15 1.24 1.21 1.33 1.40 1.54 1.25 0.96 0.71 0.65 0.74 0.91 1.16 1.55 1.88 2.00 1.96 1.77 1.62
1.26 1.26 1.33 1.35 1.34 1.34 1.38 1.48 1.61 1.72 1.72 1.65 1.62 1.72 1.70 1.52 1.61 1.65 1.67 1.85 1.74 1.52 1.34 1.08 0.99 1.00 1.07 1.14 1.31 1.52 1.09 1.01 0.85 0.70 0.64 0.70 0.87 1.07 1.41 1.78 2.07 2.08 1.99
0.95 1.05 1.16 1.23 1.19 1.20 1.25 1.36 1.51 1.56 1.65 1.71 1.72 1.73 1.73 1.66 1.67 1.68 1.76 1.81 1.84 1.65 1.40 1.18 1.02 0.91 0.99 1.02 1.24 1.17 0.99 1.00 0.93 0.81 0.73 0.69 0.78 0.93 1.13 1.23 1.33 1.43 1.52
0.84 0.91 0.88 0.85 0.83 0.88 0.91 1.02 1.22 1.31 1.36 1.46 1.47 1.52 1.58 1.59 1.65 1.65 1.71 1.78 1.76 1.69 1.54 1.31 1.14 1.07 1.10 1.00 1.12 1.02 1.07 1.20 1.02 0.87 0.79 0.74 0.74 0.82 0.91 0.94 0.93 0.87 0.87
0.53 0.61 0.57 0.54 0.59 0.65 0.62 0.71 0.83 0.94 1.04 1.12 1.13 1.19 1.26 1.30 1.40 1.46 1.57 1.63 1.67 1.64 1.43 1.27 1.16 1.16 1.17 1.15 1.13 1.06 1.11 1.13 1.01 0.92 0.79 0.70 0.71 0.76 0.85 0.89 0.87 0.81 0.72
0.23 0.29 0.32 0.33 0.41 0.53 0.55 0.62 0.66 0.69 0.79 0.85 0.91 0.97 1.01 1.04 1.16 1.25 1.32 1.41 1.54 1.59 1.49 1.33 1.23 1.16 1.06 1.07 1.22 1.27 1.26 1.17 1.15 1.20 1.09 0.92 0.83 0.79 0.80 0.87 0.92 0.87 0.78
0.16 0.20 0.23 0.26 0.30 0.40 0.52 0.58 0.60 0.58 0.57 0.57 0.60 0.66 0.75 0.83 0.98 1.07 1.10 1.20 1.37 1.40 1.48 1.38 1.32 1.26 1.11 1.05 1.20 1.23 1.30 1.46 1.34 1.42 1.55 1.35 1.09 0.91 0.83 0.89 0.94 0.91 0.84
0.16 0.15 0.14 0.16 0.25 0.35 0.44 0.52 0.56 0.53 0.50 0.50 0.52 0.54 0.59 0.62 0.71 0.83 0.94 1.14 1.32 1.45 1.49 1.41 1.39 1.36 1.29 1.21 1.27 1.35 1.43 1.52 1.54 1.38 1.41 1.39 1.32 1.20 1.02 0.92 0.97 1.01 0.99
0.12 0.08 0.06 0.08 0.17 0.23 0.28 0.41 0.46 0.46 0.49 0.47 0.48 0.53 0.55 0.54 0.55 0.59 0.59 0.78 1.02 1.26 1.37 1.42 1.43 1.46 1.41 1.37 1.32 1.44 1.51 1.62 1.71 1.68 1.58 1.42 1.37 1.22 1.10 1.02 0.98 1.02 1.07
0.09 0.07 0.06 0.06 0.08 0.09 0.15 0.22 0.31 0.41 0.48 0.51 0.52 0.57 0.56 0.52 0.56 0.54 0.52 0.55 0.67 0.84 1.02 1.15 1.24 1.29 1.35 1.45 1.57 1.57 1.53 1.61 1.66 1.67 1.54 1.56 1.51 1.39 1.22 1.05 1.05 1.07 1.11
0.05 0.04 0.04 0.05 0.05 0.05 0.06 0.09 0.20 0.36 0.49 0.50 0.49 0.64 0.71 0.64 0.63 0.66 0.68 0.62 0.56 0.56 0.72 0.91 1.03 1.08 1.16 1.27 1.52 1.56 1.56 1.58 1.50 1.54 1.41 1.45 1.42 1.31 1.23 1.18 1.19 1.11 1.12
0.03 0.04 0.05 0.08 0.05 0.03 0.04 0.05 0.11 0.25 0.40 0.45 0.46 0.59 0.84 0.87 0.75 0.71 0.76 0.86 0.78 0.63 0.61 0.67 0.83 0.95 1.00 1.16 1.50 1.72 1.66 1.45 1.40 1.46 1.37 1.37 1.33 1.21 1.15 1.14 1.18 1.09 1.08
0.04 0.04 0.05 0.07 0.06 0.05 0.05 0.06 0.10 0.20 0.30 0.35 0.39 0.51 0.68 0.83 0.76 0.72 0.72 0.80 0.83 0.73 0.67 0.69 0.66 0.73 0.86 1.03 1.30 1.56 1.67 1.61 1.45 1.40 1.27 1.19 1.21 1.22 1.25 1.21 1.15 1.14 1.07
0.06 0.06 0.05 0.04 0.04 0.04 0.05 0.07 0.08 0.14 0.18 0.18 0.26 0.41 0.57 0.56 0.53 0.60 0.71 0.82 0.90 0.75 0.65 0.75 0.74 0.76 0.78 0.96 1.29 1.51 1.63 1.61 1.49 1.44 1.34 1.24 1.24 1.26 1.45 1.40 1.23 1.17 1.11